Location: Lombard
(41.8800°N, 88.0080°W)
Time: 13:45:26
(UTC-06:00)

Transit 4A - Pass Details

Date: 02 December 2023
Orbit: 870 x 973 km, 66.8° (Epoch: 03 March)

Event Time Altitude Azimuth Distance (km) Brightness Sun altitude
Rises 05:07:00 0° 331° (NNW) 3,601 - -20.6°
Reaches altitude 10° 05:09:37 10° 335° (NNW) 2,638 - -20.2°
Exits shadow 05:10:39 15° 337° (NNW) 2,266 9.6 -20.0°
Maximum altitude 05:15:41 63° 56° (ENE) 1,009 8.2 -19.1°
Drops below altitude 10° 05:21:33 10° 138° (SE) 2,553 11.0 -18.0°
Sets 05:24:02 0° 141° (SE) 3,477 11.8 -17.6°
